When you browse on this site, cookies collect data to enhance your experience and personalize the content and advertising you see.
Visit our Privacy Policy to learn more. By continuing to use the site, you agree to this use of cookies and data.
  • In Netherlands
  • List of Countries
  • For 7 days
  • Water Temperature
  • Satellite Maps
  • Weather Map
  • Weather Widgets
  • user-avatar
    Login

    Hourly Weather Montana

    Today, 17 July, Wednesday

    Time Temperature Precipitation Wind Pressure Humidity
    00:00 +18°C° 0 mm 1 mps 731 mmHg 79%
    01:00 +18°C° 0 mm 1 mps 731 mmHg 79%
    02:00 +18°C° 0 mm 1 mps 731 mmHg 80%
    03:00 +16°C° 0 mm 1 mps 731 mmHg 81%
    04:00 +16°C° 0 mm 1 mps 732 mmHg 81%
    05:00 +16°C° 0 mm 1 mps 732 mmHg 82%
    06:00 +19°C° 0 mm 1 mps 732 mmHg 78%
    07:00 +20°C° 0 mm 1 mps 732 mmHg 74%
    08:00 +22°C° 0 mm 1 mps 732 mmHg 70%
    09:00 +23°C° 0.1 mm 1 mps 732 mmHg 64%
    10:00 +24°C° 0.1 mm 2 mps 732 mmHg 57%
    11:00 +25°C° 0.1 mm 2 mps 732 mmHg 51%
    12:00 +26°C° 0 mm 2 mps 732 mmHg 48%
    13:00 +27°C° 0 mm 2 mps 731 mmHg 44%
    14:00 +27°C° 0 mm 2 mps 731 mmHg 41%
    15:00 +27°C° 0 mm 3 mps 731 mmHg 44%
    16:00 +27°C° 0 mm 3 mps 731 mmHg 47%
    17:00 +27°C° 0 mm 3 mps 731 mmHg 50%
    18:00 +25°C° 0 mm 3 mps 730 mmHg 57%
    19:00 +23°C° 0 mm 2 mps 730 mmHg 64%
    20:00 +20°C° 0 mm 2 mps 730 mmHg 71%
    21:00 +20°C° 0 mm 2 mps 731 mmHg 72%
    22:00 +19°C° 0 mm 2 mps 731 mmHg 74%
    23:00 +18°C° 0 mm 2 mps 731 mmHg 75%

    Tomorrow, 18 July, Thursday

    Time Temperature Precipitation Wind Pressure Humidity
    00:00 +18°C° 0 mm 2 mps 731 mmHg 75%
    01:00 +17°C° 0 mm 2 mps 731 mmHg 75%
    02:00 +17°C° 0 mm 2 mps 731 mmHg 74%
    03:00 +17°C° 0 mm 2 mps 731 mmHg 73%
    04:00 +16°C° 0 mm 2 mps 731 mmHg 71%
    05:00 +16°C° 0 mm 2 mps 731 mmHg 70%
    06:00 +19°C° 0 mm 1 mps 731 mmHg 66%
    07:00 +21°C° 0 mm 1 mps 732 mmHg 62%
    08:00 +23°C° 0 mm 1 mps 732 mmHg 58%
    09:00 +24°C° 0 mm 1 mps 732 mmHg 54%
    10:00 +25°C° 0 mm 1 mps 732 mmHg 50%
    11:00 +26°C° 0 mm 2 mps 732 mmHg 46%
    12:00 +27°C° 0 mm 1 mps 732 mmHg 45%
    13:00 +28°C° 0 mm 1 mps 732 mmHg 44%
    14:00 +28°C° 0 mm 1 mps 732 mmHg 42%
    15:00 +28°C° 0 mm 1 mps 732 mmHg 43%
    16:00 +28°C° 0 mm 1 mps 732 mmHg 43%
    17:00 +28°C° 0 mm 1 mps 732 mmHg 44%
    18:00 +26°C° 0 mm 1 mps 732 mmHg 50%
    19:00 +24°C° 0 mm 1 mps 732 mmHg 56%
    20:00 +22°C° 0 mm 1 mps 732 mmHg 62%
    21:00 +22°C° 0 mm 1 mps 732 mmHg 62%
    22:00 +21°C° 0 mm 1 mps 733 mmHg 61%
    23:00 +21°C° 0 mm 1 mps 733 mmHg 61%

    Day after tomorrow, 19 July, Friday

    Time Temperature Precipitation Wind Pressure Humidity
    00:00 +21°C° 0 mm 1 mps 733 mmHg 63%
    01:00 +20°C° 0 mm 1 mps 733 mmHg 64%
    02:00 +20°C° 0 mm 1 mps 734 mmHg 66%
    03:00 +20°C° 0 mm 1 mps 734 mmHg 68%
    04:00 +19°C° 0 mm 1 mps 734 mmHg 70%
    05:00 +19°C° 0 mm 1 mps 734 mmHg 72%
    06:00 +21°C° 0 mm 1 mps 734 mmHg 68%
    07:00 +22°C° 0 mm 1 mps 734 mmHg 64%
    08:00 +24°C° 0 mm 1 mps 735 mmHg 60%
    09:00 +26°C° 0 mm 1 mps 735 mmHg 57%
    10:00 +27°C° 0 mm 1 mps 735 mmHg 53%
    11:00 +28°C° 0 mm 1 mps 735 mmHg 50%
    12:00 +29°C° 0.1 mm 1 mps 735 mmHg 48%
    13:00 +30°C° 0.1 mm 1 mps 735 mmHg 46%
    14:00 +30°C° 0.1 mm 1 mps 734 mmHg 44%
    15:00 +30°C° 0.4 mm 1 mps 734 mmHg 44%
    16:00 +30°C° 0.4 mm 1 mps 734 mmHg 44%
    17:00 +30°C° 0.4 mm 1 mps 734 mmHg 45%
    18:00 +28°C° 0 mm 1 mps 734 mmHg 50%
    19:00 +26°C° 0 mm 1 mps 734 mmHg 56%
    20:00 +24°C° 0 mm 1 mps 734 mmHg 62%
    21:00 +23°C° 0 mm 1 mps 735 mmHg 62%
    22:00 +23°C° 0 mm 1 mps 735 mmHg 62%
    23:00 +22°C° 0 mm 1 mps 735 mmHg 63%

    20 July, Saturday

    Time Temperature Precipitation Wind Pressure Humidity
    00:00 +22°C° 0 mm 1 mps 735 mmHg 64%
    01:00 +21°C° 0 mm 1 mps 735 mmHg 65%
    02:00 +21°C° 0 mm 1 mps 735 mmHg 67%
    03:00 +20°C° 0 mm 1 mps 735 mmHg 69%
    04:00 +20°C° 0 mm 1 mps 735 mmHg 72%
    05:00 +19°C° 0 mm 1 mps 735 mmHg 74%
    06:00 +21°C° 0 mm 1 mps 736 mmHg 71%
    07:00 +23°C° 0 mm 1 mps 736 mmHg 67%
    08:00 +24°C° 0 mm 1 mps 736 mmHg 64%
    09:00 +26°C° 0 mm 1 mps 736 mmHg 60%
    10:00 +27°C° 0 mm 1 mps 736 mmHg 56%
    11:00 +29°C° 0 mm 1 mps 736 mmHg 52%
    12:00 +30°C° 0.2 mm 1 mps 736 mmHg 49%
    13:00 +31°C° 0.2 mm 1 mps 736 mmHg 46%
    14:00 +32°C° 0.2 mm 1 mps 736 mmHg 43%
    15:00 +31°C° 0.3 mm 1 mps 736 mmHg 43%
    16:00 +31°C° 0.3 mm 1 mps 736 mmHg 43%
    17:00 +31°C° 0.3 mm 1 mps 735 mmHg 44%
    18:00 +29°C° 0 mm 1 mps 735 mmHg 49%
    19:00 +27°C° 0 mm 1 mps 736 mmHg 54%
    20:00 +25°C° 0 mm 1 mps 736 mmHg 60%
    21:00 +25°C° 0 mm 1 mps 736 mmHg 59%
    22:00 +24°C° 0 mm 1 mps 736 mmHg 59%
    23:00 +24°C° 0 mm 1 mps 737 mmHg 59%

    21 July, Sunday

    Time Temperature Precipitation Wind Pressure Humidity
    00:00 +23°C° 0 mm 1 mps 737 mmHg 59%
    01:00 +23°C° 0 mm 1 mps 737 mmHg 59%
    02:00 +23°C° 0 mm 1 mps 737 mmHg 59%
    03:00 +22°C° 0 mm 1 mps 737 mmHg 61%
    04:00 +22°C° 0 mm 1 mps 737 mmHg 62%
    05:00 +22°C° 0 mm 1 mps 737 mmHg 64%
    06:00 +23°C° 0 mm 1 mps 737 mmHg 61%
    07:00 +23°C° 0 mm 0 mps 737 mmHg 58%
    08:00 +25°C° 0 mm 0 mps 737 mmHg 56%
    09:00 +28°C° 0 mm 1 mps 737 mmHg 52%
    10:00 +30°C° 0 mm 1 mps 737 mmHg 49%
    11:00 +31°C° 0 mm 1 mps 737 mmHg 45%
    12:00 +32°C° 0.1 mm 1 mps 737 mmHg 44%
    13:00 +32°C° 0.1 mm 1 mps 737 mmHg 42%
    14:00 +31°C° 0.1 mm 0 mps 737 mmHg 41%
    15:00 +33°C° 0.1 mm 1 mps 737 mmHg 41%
    16:00 +33°C° 0.1 mm 1 mps 736 mmHg 41%
    17:00 +32°C° 0.1 mm 1 mps 736 mmHg 40%
    18:00 +31°C° 0 mm 1 mps 736 mmHg 45%
    19:00 +29°C° 0 mm 1 mps 736 mmHg 50%
    20:00 +27°C° 0 mm 1 mps 736 mmHg 55%
    21:00 +27°C° 0 mm 1 mps 737 mmHg 54%
    22:00 +26°C° 0 mm 1 mps 737 mmHg 53%
    23:00 +26°C° 0 mm 1 mps 737 mmHg 52%

    22 July, Monday

    Time Temperature Precipitation Wind Pressure Humidity
    00:00 +25°C° 0 mm 1 mps 737 mmHg 54%
    01:00 +25°C° 0 mm 1 mps 737 mmHg 56%
    02:00 +24°C° 0 mm 1 mps 737 mmHg 58%
    03:00 +24°C° 0 mm 1 mps 737 mmHg 60%
    04:00 +23°C° 0 mm 1 mps 736 mmHg 62%
    05:00 +23°C° 0 mm 1 mps 736 mmHg 64%
    06:00 +25°C° 0 mm 1 mps 737 mmHg 62%
    07:00 +26°C° 0 mm 1 mps 737 mmHg 59%
    08:00 +28°C° 0 mm 1 mps 737 mmHg 56%
    09:00 +29°C° 0 mm 1 mps 737 mmHg 52%
    10:00 +31°C° 0 mm 2 mps 737 mmHg 49%
    11:00 +33°C° 0 mm 3 mps 737 mmHg 45%
    12:00 +33°C° 0.1 mm 3 mps 736 mmHg 44%
    13:00 +34°C° 0.1 mm 3 mps 736 mmHg 42%
    14:00 +34°C° 0.1 mm 3 mps 735 mmHg 41%
    15:00 +34°C° 0.1 mm 3 mps 735 mmHg 42%
    16:00 +34°C° 0.1 mm 3 mps 735 mmHg 42%
    17:00 +34°C° 0.1 mm 3 mps 735 mmHg 43%
    18:00 +31°C° 0 mm 3 mps 735 mmHg 48%
    19:00 +29°C° 0 mm 2 mps 735 mmHg 52%
    20:00 +28°C° 0 mm 2 mps 735 mmHg 57%
    21:00 +27°C° 0 mm 2 mps 735 mmHg 60%
    22:00 +26°C° 0 mm 2 mps 735 mmHg 62%
    23:00 +25°C° 0 mm 2 mps 735 mmHg 65%
    Show more